Regional Weather Roundup
Issued by NWS Boston, MA

Current Version | Previous Version | Text Only | Print | Product List | Glossary Off
Versions: 1 2 3 4 5 6 7 8 9 10 11 12 13 14 15 16 17 18 19 20 21 22 23 24 25 26 27 28

000
ASUS41 KBOX 210510
RWRBOX

REGIONAL WEATHER ROUNDUP
NATIONAL WEATHER SERVICE TAUNTON MA
100 AM EDT SAT OCT 21 2017

NOTE:  "FAIR" INDICATES FEW OR NO CLOUDS BELOW 12,000 FEET WITH NO
SIGNIFICANT WEATHER AND/OR OBSTRUCTIONS TO VISIBILITY.

MAZALL-210600-
EASTERN MASSACHUSETTS

CITY           SKY/WX    TMP DP  RH WIND       PRES   REMARKS
BOSTON         CLEAR     60  35  39 NW7       30.17R
BEVERLY        CLEAR     52  37  56 CALM      30.16R
LAWRENCE       CLEAR     54  38  54 CALM      30.19R
BEDFORD        CLEAR     47  36  65 CALM      30.17R
BLUE HILL        N/A     54  35  48 NW13      30.17R
NORWOOD        CLEAR     44  40  85 CALM      30.17R
MARSHFIELD     PTCLDY    59  36  41 VRB3      30.16R
PLYMOUTH       CLEAR     47  38  71 CALM      30.17R
TAUNTON        CLEAR     42  39  89 CALM      30.18R
NEW BEDFORD    CLEAR     47  40  76 CALM      30.17R
$$

MAZALL-210600-
CAPE COD AND THE ISLANDS

CITY           SKY/WX    TMP DP  RH WIND       PRES   REMARKS
FALMOUTH       CLEAR     45  41  87 CALM      30.18R
HYANNIS        CLEAR     52  41  66 CALM      30.15R
CHATHAM        CLEAR     54  47  77 NW3       30.16R
PROVINCETOWN   CLEAR     58  49  72 N7        30.16R
NANTUCKET      CLEAR     59  47  64 NW9       30.16R
MARTHAS VNYRD  CLEAR     45  42  89 CALM      30.17R
$$

MAZALL-210600-
CENTRAL AND WESTERN MASSACHUSETTS

CITY           SKY/WX    TMP DP  RH WIND       PRES   REMARKS
WORCESTER      CLEAR     55  31  39 W12       30.20R
FITCHBURG      PTCLDY    50  42  74 CALM      30.20R
ORANGE         PTCLDY    39  39 100 CALM      30.22R
SPRINGFIELD    CLEAR     39  37  90 CALM      30.20R
WESTFIELD      CLEAR     44  40  85 CALM      30.21R
NORTH ADAMS    CLEAR     40  37  89 CALM      30.24R
PITTSFIELD     CLEAR     46  38  73 CALM      30.23R
$$

RIZALL-210600-
RHODE ISLAND

CITY           SKY/WX    TMP DP  RH WIND       PRES   REMARKS
PROVIDENCE     CLEAR     55  41  59 W5        30.19R
NEWPORT        CLEAR     53  44  71 NW6       30.18R
BLOCK ISLAND   CLEAR     60  46  59 NW10      30.19R
SMITHFIELD     CLEAR     54  38  54 W8        30.20R
WESTERLY       CLEAR     56  41  57 N5        30.19R
$$

CTZALL-210600-
CONNECTICUT

CITY           SKY/WX    TMP DP  RH WIND       PRES   REMARKS
BRADLEY INTL   PTCLDY    51  38  60 CALM      30.21R
HARTFORD       PTCLDY    47  44  90 CALM      30.22R
BRIDGEPORT     CLEAR     51  41  68 SE3       30.22R
DANBURY        CLEAR     45  41  86 CALM      30.24R
GROTON         CLEAR     49  44  83 N3        30.19R
NEW HAVEN      CLEAR     46  40  79 N5        30.22R
CHESTER        FAIR      55  37  50 NW5       30.21R
MERIDEN        CLEAR     43  40  89 CALM      30.23R
WILLIMANTIC    CLEAR     42  39  89 NE5       30.22R
OXFORD         CLEAR     48  37  65 E3        30.24R
$$

MEZ002-015-021-024-NHZ003-005-008-011-012-014-VTZ005-008-210600-
NORTHERN NEW ENGLAND

CITY           SKY/WX    TMP DP  RH WIND       PRES   REMARKS
PORTLAND ME    PTCLDY    49  35  58 W7        30.15R
BANGOR ME      CLEAR     43  36  76 SW5       30.11R
CONCORD NH     CLOUDY    45  37  73 CALM      30.18R
MANCHESTER NH  CLOUDY    51  39  63 CALM      30.17R
NASHUA NH      CLOUDY    44  40  85 NW6       30.19R
PORTSMOUTH NH  MOCLDY    54  35  48 W3        30.15R
JAFFREY NH     PTCLDY    44  40  85 CALM      30.20R
KEENE NH       PTCLDY    39  37  92 CALM      30.21R
BURLINGTON VT  CLOUDY    45  39  79 CALM      30.18R
MT. WASHINGTON PTCLDY    36  27  69 NW51G62     N/A  WCI  19
$$

NYZ052-076-210600-
EASTERN NEW YORK

CITY           SKY/WX    TMP DP  RH WIND       PRES   REMARKS
ALBANY         CLEAR     49  37  63 W3        30.23R
NEW YORK CITY  CLEAR     65  39  38 N5        30.21R
$$

ANZALL-210600-
MARINE OBSERVATIONS

STATION/POSITION TIME  TEMP    WIND        PRES    VSBY  WAVE
                       AIR SEA DIR/SP/G                  HT/PER
                 (UTC) (F)     (DEG/KT/KT) (MB)    (MI)  (FT/S)
BOSTON BUOY      0450   60 59  320/  8/  8 1020.4R         1/ 8
BUZZARDS BAY     0400   63     290/ 15/ 16 1021.5R
NANTUCKET SOUND  0450   62 62  310/ 10/ 12 1021.2R         1/ 3
MASS BAY-STELLWA 0404   61 59  340/  6/  8 1019.7R         1/ 8
ISLE OF SHOALS   0400   59     300/  9/  9 1020.3R
S OF BLOCK IS    NOT AVBL
$$

......................KEY.........................
  SKY/WX - SKY CONDITION/PRESENT WEATHER
  TMP    - TEMPERATURE IN FAHRENHEIT
  DWPT   - DEWPOINT IN FAHRENHEIT
  RH     - RELATIVE HUMIDITY IN PERCENT
  WIND   - DIRECTION AND SPEED IN MPH
  PRES   - MEAN SEA LEVEL PRESSURE IN INCHES OF HG
  WCI    - WIND CHILL INDEX
  VSB    - VISIBILITY IN MILES
  HX     - HEAT INDEX
  TC     - TEMPERATURE IN CELSIUS
  VRB    - VARIABLE WIND DIRECTION
  N/A    - NOT AVAILABLE




USA.gov is the U.S. government's official web portal to all federal, state and local government web resources and services.